FW1140 Weather Reports


time (UTC)temp
F
wind
direction
speed
knots
gust
knots
rain 1hr
in
rain 24hr
in
rain mn
in
humidity
%
barometer
mb
20260507130042 39 134 0.9 2.6 0.00 0.00 0.00 65 1010.9
20260507124539 38 120 0.9 2.6 0.00 0.00 0.00 65 1010.8
20260507123029 37 236 0.0 1.7 0.00 0.00 0.00 68 1010.9
20260507121524 35 236 0.0 0.9 0.00 0.00 0.00 72 1010.9
20260507120020 32 236 0.0 0.0 0.00 0.00 0.00 77 1010.8
20260507114516 31 236 0.0 3.5 0.00 0.00 0.00 77 1010.7
20260507113033 30 236 0.9 3.5 0.00 0.00 0.00 78 1010.7
20260507111509 30 236 2.6 4.3 0.00 0.00 0.00 78 1010.6
20260507110010 29 211 2.6 4.3 0.00 0.00 0.00 78 1010.8
20260507104504 31 228 2.6 3.5 0.00 0.00 0.00 75 1010.9
20260507103101 32 23 0.9 3.5 0.00 0.00 0.00 70 1010.9
20260507101558 34 23 0.0 1.7 0.00 0.00 0.00 70 1011.0
20260507094557 37 115 0.9 5.2 0.00 0.00 0.00 65 1010.8
20260507093052 37 172 4.3 7.0 0.00 0.00 0.00 66 1010.6
20260507091605 38 157 5.2 8.7 0.00 0.00 0.00 62 1010.9
20260507090050 39 171 7.0 12.2 0.00 0.00 0.00 61 1010.9
20260507084600 38 177 7.8 12.2 0.00 0.00 0.00 62 1011.1
20260507083047 38 171 8.7 10.4 0.00 0.00 0.00 62 1011.2
20260507081553 38 146 3.5 5.2 0.00 0.00 0.00 62 1011.3
20260507080045 38 179 2.6 8.7 0.00 0.00 0.00 62 1011.3
20260507074548 38 149 4.3 6.1 0.00 0.00 0.00 63 1011.6
20260507073040 38 142 5.2 7.8 0.00 0.00 0.00 61 1011.6
20260507071537 37 154 4.3 8.7 0.00 0.00 0.00 64 1011.9
20260507070036 37 155 4.3 6.1 0.00 0.00 0.00 65 1012.2
20260507064538 36 162 6.1 8.7 0.00 0.00 0.00 65 1012.1
20260507063035 36 145 5.2 7.0 0.00 0.00 0.00 67 1012.3
20260507061531 37 148 0.0 3.5 0.00 0.00 0.00 65 1012.8
20260507060029 37 146 2.6 5.2 0.00 0.00 0.00 65 1012.7
20260507054527 36 127 0.9 5.2 0.00 0.00 0.00 69 1012.9
20260507053025 36 359 0.0 0.9 0.00 0.00 0.00 64 1013.2
20260507051523 36 359 0.0 0.0 0.00 0.00 0.00 63 1013.2
20260507050026 36 359 0.0 0.0 0.00 0.00 0.00 65 1013.2
20260507044520 36 359 0.0 0.9 0.00 0.00 0.00 64 1013.4
20260507043025 37 359 0.0 0.9 0.00 0.00 0.00 62 1013.4
20260507041519 37 359 0.0 0.9 0.00 0.00 0.00 66 1013.6
20260507040019 38 258 0.0 0.0 0.00 0.00 0.00 63 1013.7
20260507034523 37 258 0.0 1.7 0.00 0.00 0.00 64 1013.7
20260507033018 35 258 0.9 2.6 0.00 0.00 0.00 67 1013.7
20260507031519 36 359 0.0 1.7 0.00 0.00 0.00 63 1013.8
20260507030017 38 359 0.0 0.9 0.00 0.00 0.00 60 1013.7
20260507024519 38 359 0.9 2.6 0.00 0.00 0.00 58 1013.6
20260507023016 37 359 0.9 3.5 0.00 0.00 0.00 61 1013.6
20260507021515 36 359 0.9 2.6 0.00 0.00 0.00 62 1013.3
20260507020022 39 359 1.7 2.6 0.00 0.00 0.00 58 1013.3
20260507014515 42 359 0.0 0.0 0.00 0.00 0.00 54 1013.2
20260507013020 42 359 0.0 1.7 0.00 0.00 0.00 52 1013.1
20260507011518 43 359 1.7 4.3 0.00 0.00 0.00 51 1013.1
20260507010015 44 360 2.6 5.2 0.00 0.00 0.00 48 1013.1
20260507004512 46 351 3.5 6.1 0.00 0.00 0.00 46 1013.3
20260507003011 46 357 3.5 8.7 0.00 0.00 0.00 45 1013.4
20260507001536 46 360 6.1 9.6 0.00 0.00 0.00 45 1013.4
20260507000014 46 1 6.1 9.6 0.00 0.00 0.00 46 1013.6
20260506234509 47 1 6.1 11.3 0.00 0.00 0.00 45 1013.6
20260506233007 47 1 11.3 13.0 0.00 0.00 0.00 44 1013.7
20260506231506 48 325 7.8 13.9 0.00 0.00 0.00 44 1013.7
20260506230006 48 317 7.8 13.0 0.00 0.00 0.00 42 1013.8
20260506224505 48 319 6.1 12.2 0.00 0.00 0.00 44 1013.8
20260506223004 49 313 10.4 14.8 0.00 0.00 0.00 43 1013.8
20260506221504 49 338 12.2 17.4 0.00 0.00 0.00 42 1014.0
20260506220003 49 313 9.6 19.1 0.00 0.00 0.00 42 1014.1
20260506214501 49 326 10.4 14.8 0.00 0.00 0.00 42 1014.2
20260506213103 47 340 8.7 15.6 0.00 0.00 0.00 44 1014.3
20260506211558 48 299 10.4 14.8 0.00 0.00 0.00 43 1014.5
20260506210059 48 354 10.4 15.6 0.00 0.00 0.00 44 1014.8
20260506204557 47 341 8.7 13.9 0.00 0.00 0.00 44 1014.9
20260506203114 47 335 4.3 11.3 0.00 0.00 0.00 44 1015.1
20260506201553 46 288 7.8 15.6 0.00 0.00 0.00 44 1015.2
20260506200056 47 273 7.0 14.8 0.00 0.00 0.00 44 1015.3
20260506194553 47 311 11.3 14.8 0.00 0.00 0.00 44 1015.4
20260506193051 45 313 8.7 13.9 0.00 0.00 0.00 46 1015.6
20260506191548 45 258 7.8 16.5 0.00 0.00 0.00 46 1015.7
20260506190050 45 317 10.4 14.8 0.00 0.00 0.00 46 1015.8
20260506184549 44 316 8.7 15.6 0.00 0.00 0.00 47 1015.8
20260506183046 44 304 9.6 17.4 0.00 0.00 0.00 47 1015.9
20260506181550 44 312 13.0 18.2 0.00 0.00 0.00 46 1016.1
20260506180042 44 323 7.8 17.4 0.00 0.00 0.00 46 1016.2
20260506174540 43 276 6.1 14.8 0.00 0.00 0.00 47 1016.3
20260506173044 43 301 8.7 15.6 0.00 0.00 0.00 47 1016.4
20260506171538 42 325 8.7 14.8 0.00 0.00 0.00 49 1016.6
20260506170043 42 314 12.2 17.4 0.00 0.00 0.00 49 1016.7
20260506164549 42 324 8.7 17.4 0.00 0.00 0.00 52 1016.8
20260506163037 42 305 7.8 15.6 0.00 0.00 0.00 49 1016.8
20260506161532 41 319 10.4 17.4 0.00 0.00 0.00 51 1016.6
20260506160033 41 321 7.8 15.6 0.00 0.00 0.00 55 1016.7
20260506154529 41 335 10.4 14.8 0.00 0.00 0.00 55 1016.7
20260506153026 40 350 8.7 12.2 0.00 0.00 0.00 56 1016.7
20260506151525 39 356 7.8 13.0 0.00 0.00 0.00 56 1016.7
20260506150027 40 359 7.8 12.2 0.00 0.00 0.00 55 1016.8
20260506144526 39 347 7.8 13.0 0.00 0.00 0.00 58 1016.6
20260506143020 39 338 8.7 12.2 0.00 0.00 0.00 59 1016.8
20260506141524 38 317 8.7 12.2 0.00 0.00 0.00 61 1016.7
20260506140010 38 315 7.0 13.0 0.00 0.00 0.00 63 1016.8
20260506134506 38 359 7.0 13.0 0.00 0.00 0.00 64 1016.5
20260506133003 38 313 7.8 14.8 0.00 0.00 0.00 62 1016.5
20260506131616 38 314 10.4 15.6 0.00 0.00 0.00 60 1016.5